[Date Prev][Date Next][Thread Prev][Thread Next] - [Date Index][Thread Index][Author Index]
2 Line ISS Keps 10-9
- Subject: [sarex] 2 Line ISS Keps 10-9
- From: "Dave Larsen PhD" <doc@xxxxxxxxxxx>
- Date: Thu, 9 Oct 2003 05:52:50 -0700
ISS
1 25544U 98067A 03282.47664352 .00021402 00000-0 24328-3 0 6136
2 25544 51.6310 164.2892 0006166 24.5395 342.9548 15.62240171278862
----
Via the sarex mailing list at AMSAT.ORG courtesy of AMSAT-NA.
To unsubscribe, send "unsubscribe sarex" to Majordomo@amsat.org
AMSAT Home